Find Starlink 36854

NORAD ID: 68312 Int'l Des: 2026-057 Owner: SPXS Country: US Constellation: starlink operational
LEOCIRCULARRETROGRADE

Live-Position

3D-Globus wird geladen...

Über Starlink 36854

Beschreibung wird geladen...

Nächste Überflüge

Passes for default location (London). Set your location on the main map for personalized predictions.

Höhenverlauf

Loading altitude history...

Zweizeiliger Elementsatz

1 68312U 26057U 26125.30441030 .00378484 00000-0 24105-2 0 9999
2 68312 97.2868 250.6618 0000970 97.6731 262.4644 15.75353277 7201
Epoch: 5. Mai 2026 • Age: 16 hours

Aktueller Status

Höhe 366.9 km
Geschwindigkeit 7.69 km/s
Subsatellitenpunkt -62.78°S, 160.47°W
Startdatum 20. März 2026
Alter 0.1 years
Typ internet

Technische Details

Klassifizierung Payload
Masse 575.00 kg
Trockenmasse 530.00 kg
Gesamtmasse 575.00 kg
Länge 0.30 m
Durchmesser 4.10 m
Spannweite 29.00 m
Form Box + pan
Hersteller SPXS
Bus-Typ Starlink V2MO
Phasenstatus In Orbit
Besitzer/Staat SPXS/US

Most Searched